Overview Statistics Trail Chart Weather Telemetry Raw packets
 

This is the latest recevied weather packets stored in our database for station/object K0CVS. If no packets are shown the sender has not sent any weather packets the latest 10 day(s).

<< 105 106 107 108 109 110 111 >>
Time Temp. Humidity Pressure Rain* Wind** Luminosity Snow
1787769629 33.33° C 52% 1017.5 hPa 0 mm - 587 W/m² -
1787769326 32.78° C 54% 1017.5 hPa 0 mm - 632 W/m² -
1787769022 32.78° C 55% 1017.7 hPa 0 mm - 662 W/m² -
1787768717 33.33° C 53% 1017.6 hPa 0 mm - 627 W/m² -
1787768414 33.33° C 53% 1017.8 hPa 0 mm - 655 W/m² -
1787768110 32.78° C 54% 1018 hPa 0 mm - 653 W/m² -
1787767810 32.22° C 54% 1017.9 hPa 0 mm - 657 W/m² -
1787767506 32.78° C 52% 1017.8 hPa 0 mm - 657 W/m² -
1787767203 32.78° C 50% 1018 hPa 0 mm - 644 W/m² -
1787766902 32.78° C 52% 1018 hPa 0 mm - 654 W/m² -
1787766597 32.78° C 51% 1018.1 hPa 0 mm - 651 W/m² -
1787766296 32.78° C 51% 1018.2 hPa 0 mm - 645 W/m² -
1787765991 32.22° C 53% 1018.1 hPa 0 mm - 633 W/m² -
1787765688 32.22° C 54% 1018 hPa 0 mm - 637 W/m² -
1787765383 32.22° C 56% 1018.3 hPa 0 mm - 630 W/m² -
1787765082 32.22° C 56% 1018.2 hPa 0 mm - 621 W/m² -
1787764777 32.78° C 54% 1018.1 hPa 0 mm - 619 W/m² -
1787764473 32.78° C 54% 1018.1 hPa 0 mm - 609 W/m² -
1787764169 32.22° C 55% 1018.2 hPa 0 mm - 612 W/m² -
1787763864 32.22° C 56% 1018.1 hPa 0 mm - 578 W/m² -
1787763559 31.67° C 54% 1018.3 hPa 0 mm - 594 W/m² -
1787763255 31.67° C 58% 1018.2 hPa 0 mm - 586 W/m² -
1787762949 31.11° C 60% 1018.2 hPa 0 mm - 585 W/m² -
1787762649 31.11° C 60% 1018.4 hPa 0 mm - 574 W/m² -
1787762346 31.11° C 58% 1018.3 hPa 0 mm - 570 W/m² -

* Rain latest hour (hover to see other rain measurements)
** Current wind speed in m/s (hover to see current wind gust speed)